Find Starlink 6130

NORAD ID: 57104 Int'l Des: 2023-090 Owner: SPXS Country: US Constellation: starlink operational
LEOCIRCULAR

Live Position

Loading 3D Globe...

About Starlink 6130

Description loading...

Upcoming Passes

Passes for default location (London). Set your location on the main map for personalized predictions.

Altitude History

Loading altitude history...

Two-Line Element Set

1 57104U 23090D 26121.33164639 .00005656 00000-0 22020-3 0 9999
2 57104 43.0024 344.2326 0001168 249.9502 110.1224 15.26766194158386
Epoch: May 1, 2026 • Age: 10 hours

Current Status

Altitude 496.1 km
Velocity 7.62 km/s
Sub-Earth Point -38.58°S, 83.58°E
Launch Date Jun 23, 2023
Age 2.8 years
Type internet

Technical Details

Classification Payload
Mass 305.00 kg
Dry Mass 290.00 kg
Total Mass 305.00 kg
Length 0.20 m
Diameter 2.80 m
Span 9.00 m
Shape Box + pan
Manufacturer SPXS
Bus Type Starlink
Phase Status In Orbit
Owner/State SPXS/US

Most Searched